This is the latest recevied weather packets stored in our database for station/object SR9NLI. If no packets are shown the sender has not sent any weather packets the latest 1 day(s).
| Time | Temp. | Humidity | Pressure | Rain* | Wind** | Luminosity | Snow |
|---|---|---|---|---|---|---|---|
| 1778016337 | 17.22° C | 100% | 949.6 hPa | - | 1.34 m/s, 173° | - | - |
| 1778016277 | 16.67° C | 100% | 949.6 hPa | - | 1.34 m/s, 172° | - | - |
| 1778016214 | 17.22° C | 100% | 949.5 hPa | - | 1.79 m/s, 170° | - | - |
| 1778016092 | 17.22° C | 100% | 949.5 hPa | - | 1.79 m/s, 162° | - | - |
| 1778015968 | 17.22° C | 100% | 949.6 hPa | - | 1.34 m/s, 173° | - | - |
| 1778015907 | 17.22° C | 100% | 949.6 hPa | - | 1.34 m/s, 180° | - | - |
| 1778015844 | 17.22° C | 100% | 949.5 hPa | - | 1.34 m/s, 184° | - | - |
| 1778015721 | 17.22° C | 100% | 949.6 hPa | - | 1.34 m/s, 179° | - | - |
| 1778015598 | 17.22° C | 100% | 949.6 hPa | - | 2.24 m/s, 176° | - | - |
| 1778015538 | 17.22° C | 100% | 949.6 hPa | - | 2.68 m/s, 173° | - | - |
| 1778015475 | 17.22° C | 100% | 949.7 hPa | - | 2.24 m/s, 173° | - | - |
| 1778015352 | 17.22° C | 100% | 949.6 hPa | - | 1.79 m/s, 178° | - | - |
| 1778015229 | 17.22° C | 100% | 949.7 hPa | - | 1.79 m/s, 177° | - | - |
| 1778015169 | 17.22° C | 100% | 949.8 hPa | - | 1.79 m/s, 178° | - | - |
| 1778015106 | 17.22° C | 100% | 949.7 hPa | - | 1.79 m/s, 177° | - | - |
| 1778014982 | 17.22° C | 100% | 949.6 hPa | - | 1.34 m/s, 189° | - | - |
| 1778014859 | 17.22° C | 100% | 949.8 hPa | - | 1.79 m/s, 182° | - | - |
| 1778014799 | 17.22° C | 100% | 949.7 hPa | - | 1.79 m/s, 184° | - | - |
| 1778014736 | 17.22° C | 100% | 949.7 hPa | - | 1.79 m/s, 180° | - | - |
| 1778014613 | 17.22° C | 100% | 949.8 hPa | - | 1.34 m/s, 185° | - | - |
| 1778014490 | 17.22° C | 100% | 949.8 hPa | - | 1.79 m/s, 191° | - | - |
| 1778014429 | 17.22° C | 100% | 949.8 hPa | - | 1.79 m/s, 169° | - | - |
| 1778014367 | 17.22° C | 100% | 949.8 hPa | - | 1.79 m/s, 169° | - | - |
| 1778014245 | 17.22° C | 100% | 949.7 hPa | - | 0.89 m/s, 172° | - | - |
| 1778014122 | 17.22° C | 100% | 949.8 hPa | - | 1.34 m/s, 180° | - | - |
* Rain since midnight (hover to see other rain measurements)
** Current wind speed in m/s (hover to see current wind gust speed)